Lapse_Rate
6.0 6.0 5.8 5.7 5.5 5.7 5.6 5.3 5.3 5.6 5.8 5.9 5.7 5.6 5.7 5.4 5.5 5.6 5.7 5.5 5.4 5.5 5.5 5.4 5.3 5.3 5.4 5.3 5.2 5.1 5.0 5.0 5.0 5.0 5.0 5.0 5.0 5.0
5.9 5.9 5.9 5.8 5.7 5.8 5.7 5.5 5.5 5.5 5.6 5.9 5.8 5.6 5.6 5.5 5.4 5.6 5.7 5.8 5.7 5.6 5.6 5.5 5.5 5.4 5.4 5.3 5.1 5.1 5.0 4.8 4.7 4.8 4.8 4.8 4.8 4.8
6.0 6.0 6.0 5.8 5.9 5.8 5.9 5.9 5.8 5.9 6.0 6.0 5.8 5.6 5.4 5.4 5.6 5.7 5.7 5.7 5.5 5.5 5.5 5.3 5.2 5.1 5.1 5.1 5.0 4.9 4.8 4.8 4.7 4.7 4.7 4.7 4.8 4.8
6.0 6.0 5.9 5.9 6.0 5.9 5.9 6.0 6.0 5.9 5.6 5.7 5.6 5.7 5.6 5.6 5.7 5.7 5.7 5.6 5.4 5.2 5.0 5.0 5.0 4.9 4.9 4.9 4.8 4.8 4.8 4.6 4.4 4.4 4.5 4.5 4.5 4.6
5.8 5.8 5.9 5.8 6.0 5.8 5.6 6.0 6.0 5.9 5.7 5.6 5.7 5.8 5.7 5.8 5.6 5.6 5.5 5.4 5.2 5.0 4.7 4.7 4.6 4.6 4.6 4.6 4.6 4.6 4.6 4.6 4.5 4.4 4.4 4.4 4.3 4.4
5.8 6.0 6.0 5.8 5.9 5.8 5.7 5.9 6.0 5.9 5.7 5.6 5.6 5.6 5.7 5.8 5.8 5.8 5.7 5.6 5.3 4.9 4.7 4.7 4.5 4.6 4.4 4.4 4.4 4.4 4.3 4.3 4.2 4.4 4.3 4.3 4.2 4.4
6.0 6.1 5.9 5.9 5.8 5.9 5.8 5.8 5.8 5.9 5.8 5.8 5.7 5.8 5.7 5.8 5.9 5.8 5.8 5.6 5.1 5.0 4.8 4.7 4.6 4.5 4.5 4.5 4.4 4.5 4.4 4.5 4.6 4.7 4.7 4.8 4.8 4.8
6.2 6.3 6.1 5.9 5.8 5.8 5.8 5.7 5.7 5.7 5.7 5.7 5.6 5.6 5.8 5.8 5.9 5.9 6.0 5.7 5.3 5.0 4.8 4.7 4.5 4.6 4.5 4.6 4.4 4.4 4.4 4.6 4.5 4.8 4.8 4.8 4.8 4.7
6.2 6.2 6.2 6.1 5.9 5.7 5.6 5.7 5.6 5.5 5.5 5.6 5.7 5.8 5.6 5.6 5.6 5.8 5.9 5.8 5.5 5.5 5.2 5.1 4.7 4.5 4.7 4.1 4.5 4.6 4.7 4.9 4.9 4.9 4.9 5.0 5.0 5.0
6.1 6.2 6.2 6.2 5.9 5.7 5.6 5.6 5.6 5.5 5.5 5.6 5.8 5.8 5.7 5.5 5.6 5.7 5.5 5.3 5.1 5.3 5.5 5.4 5.2 4.3 4.5 4.7 4.2 4.6 4.7 4.9 5.0 5.0 5.2 5.4 5.5 5.4
5.8 5.9 5.9 6.1 6.0 5.7 5.7 5.5 5.4 5.5 5.5 5.5 5.7 5.7 5.5 5.4 5.4 5.6 5.3 4.8 5.0 4.9 5.2 5.4 5.4 5.0 4.7 4.9 4.9 4.9 5.0 5.3 5.4 5.5 5.7 5.7 5.7 5.8
5.9 6.0 5.9 5.8 5.9 6.0 5.9 5.8 5.5 5.4 5.4 5.5 5.5 5.3 5.3 5.3 5.3 5.3 5.4 5.0 4.9 5.0 4.8 5.1 5.1 4.9 5.0 5.1 5.1 5.0 5.5 5.7 5.9 6.0 5.7 5.6 5.7 5.5
6.0 6.2 6.2 5.8 5.6 5.6 5.6 5.6 5.5 5.3 5.5 5.3 5.4 5.1 5.0 5.1 4.9 4.8 4.6 4.5 4.9 5.0 4.8 4.9 5.0 5.0 5.2 5.2 5.3 5.6 5.7 5.8 5.6 5.5 5.3 5.5 5.6 5.5
5.7 5.8 5.7 5.4 5.3 5.2 5.4 5.5 5.5 5.5 5.6 5.7 5.2 4.9 4.6 4.7 4.6 4.6 4.5 4.5 4.8 4.6 4.8 4.7 4.6 5.0 5.2 5.4 5.4 5.3 5.5 5.5 5.7 5.6 5.4 5.5 5.5 5.5
5.7 5.8 5.6 5.5 5.3 5.4 5.5 5.5 5.3 5.3 5.3 4.6 4.9 4.7 4.6 4.3 4.4 4.3 4.6 4.9 4.9 4.5 4.4 4.5 4.7 5.2 5.4 5.7 5.6 5.7 5.7 5.7 5.7 5.5 5.5 5.5 5.4 5.3
5.5 5.5 5.5 5.5 5.6 5.4 5.3 5.3 5.3 4.6 4.6 4.6 4.7 4.8 4.3 4.3 4.2 4.5 4.5 4.4 4.5 4.4 4.5 4.5 5.0 5.3 5.5 5.7 5.7 5.7 5.6 5.7 5.6 5.5 5.3 5.4 5.3 5.3
5.2 5.3 5.5 5.4 5.4 5.4 5.2 5.1 5.0 4.5 4.8 4.5 4.6 4.6 4.2 4.3 4.3 4.5 4.3 4.5 4.6 4.7 4.8 4.8 4.9 5.3 5.3 5.1 5.2 5.1 5.2 5.3 5.0 5.0 5.2 5.1 5.0 5.0
5.1 5.2 5.3 5.2 5.2 5.3 5.0 4.7 4.8 4.7 4.8 4.7 4.5 4.4 4.6 4.6 4.5 4.5 4.4 4.7 5.0 5.0 4.9 4.9 5.0 5.3 5.3 5.3 5.1 5.0 5.0 5.0 4.8 4.8 4.8 4.8 4.8 4.7
4.9 5.0 4.9 5.1 4.9 4.8 4.6 4.5 4.5 4.3 4.2 4.1 4.9 5.2 5.1 4.6 4.6 4.9 5.0 5.1 5.3 5.2 5.1 5.2 5.4 5.4 5.4 5.3 5.4 5.3 5.0 4.9 4.8 5.0 4.8 4.8 4.4 4.3
4.5 4.5 4.6 4.1 3.9 4.2 4.0 3.8 3.9 4.3 4.6 4.9 5.5 5.3 5.2 5.0 4.9 5.1 5.4 5.3 5.4 5.2 5.0 5.0 5.1 5.2 5.2 5.2 5.1 5.1 5.2 5.1 5.3 5.3 5.2 4.7 4.6 4.7
4.0 3.9 4.4 4.3 3.7 3.3 3.6 3.9 4.2 4.4 5.0 5.4 5.4 5.4 5.2 5.2 5.4 5.3 5.2 5.1 5.2 5.1 5.1 5.2 5.0 5.0 4.9 4.8 4.8 4.9 4.8 5.0 5.3 5.3 5.0 4.7 4.6 4.7
4.7 4.8 4.6 4.4 4.2 4.5 4.7 5.2 5.5 5.7 5.7 5.7 5.6 5.4 5.2 5.3 5.3 5.2 5.2 5.1 5.3 5.3 5.3 5.2 5.0 4.8 4.7 4.6 4.6 4.6 4.7 5.0 4.8 4.8 4.7 4.8 4.8 4.8
5.8 5.5 5.4 5.3 5.6 5.8 5.8 5.9 5.9 5.8 5.8 5.7 5.4 5.5 5.4 5.4 5.3 5.2 5.4 5.1 5.1 5.3 5.4 5.4 5.1 4.8 4.7 4.6 4.7 4.6 5.0 5.0 4.8 4.8 4.8 4.7 4.7 4.8
Wind_Speed
3 3 2 2 2 2 2 3 4 1 1 3 3 5 2 6 9 8 5 4 3 6 7 7 8 10 11 13 14 13 10 8 7 7 5 4 5 6
3 3 2 1 1 2 2 2 2 3 2 4 5 3 5 3 9 9 7 7 5 6 7 7 7 9 11 12 12 12 12 12 12 12 11 10 10 12
3 4 5 2 2 1 1 1 2 2 2 2 2 2 1 4 6 9 11 8 7 7 8 7 8 9 11 11 12 12 12 12 12 12 13 14 14 14
6 4 6 3 1 2 3 3 1 2 3 3 1 1 5 3 5 7 8 7 7 9 8 8 9 9 11 12 12 12 13 14 15 16 16 16 16 16
6 6 6 5 4 3 2 3 3 1 2 2 2 1 1 2 4 5 5 7 8 10 9 9 10 12 13 14 14 15 14 14 15 15 15 16 16 16
6 6 6 6 6 6 5 5 4 3 2 2 1 1 1 3 4 3 3 2 3 7 8 8 11 13 13 13 12 13 14 14 15 14 14 14 15 16
6 6 6 7 8 8 4 5 6 4 3 3 2 1 1 2 4 4 3 5 2 3 3 3 5 5 7 9 11 11 12 12 14 14 15 15 14 14
7 6 5 6 5 3 3 4 6 5 4 3 3 3 2 2 2 3 6 3 2 6 2 2 3 1 4 6 7 9 10 10 13 14 12 12 12 12
8 6 5 4 6 5 8 7 7 5 2 4 4 3 3 4 3 4 5 3 3 5 3 3 2 2 4 3 3 5 6 8 10 11 10 10 9 9
9 8 8 8 7 8 6 5 5 5 4 3 3 3 1 3 2 1 3 4 4 4 2 2 2 1 4 5 4 3 4 6 7 7 7 7 7 7
8 8 8 9 13 13 9 7 5 3 6 10 10 8 5 2 4 6 3 4 2 1 3 2 2 2 1 1 5 6 5 3 3 3 3 3 3 3
6 6 9 11 17 17 11 9 7 5 5 4 4 6 9 9 7 1 4 3 3 1 3 3 2 3 1 1 3 5 6 5 4 4 4 3 3 2
7 5 5 13 16 17 13 10 8 9 8 6 4 3 3 3 3 2 5 4 3 2 3 3 3 3 2 3 1 4 7 2 5 4 10 10 9 8
8 6 6 10 12 15 13 12 16 12 7 6 5 3 3 3 3 4 9 11 9 5 2 5 2 3 3 2 2 1 2 6 4 3 7 10 13 14
4 7 14 15 14 11 12 17 15 7 7 5 4 4 4 5 6 4 10 13 14 14 10 6 3 3 3 3 3 2 2 2 6 3 5 7 5 8
7 6 7 6 5 9 10 10 7 7 6 6 6 4 4 3 3 2 3 2 3 3 8 9 9 4 3 3 4 2 1 2 0 2 2 5 5 9
8 5 5 3 5 6 7 5 7 6 4 3 5 5 4 3 2 2 3 2 3 2 2 3 9 11 6 5 3 1 2 2 1 2 1 1 2 5
5 6 5 5 5 5 5 7 6 7 4 4 3 3 4 4 3 2 2 3 4 2 1 0 2 3 4 4 3 3 2 2 2 2 2 2 3 4
7 6 6 6 5 6 6 4 2 3 4 4 4 4 5 5 5 4 4 4 2 2 2 1 2 2 2 2 3 4 3 2 1 0 2 2 2 3
3 5 5 4 3 4 4 2 4 4 3 4 4 4 5 5 4 4 4 4 3 2 1 1 2 2 4 4 2 3 11 4 4 2 2 1 2 2
3 3 3 4 3 3 3 3 4 4 4 4 4 4 4 5 4 5 5 5 5 2 3 3 3 6 4 3 2 3 4 13 14 5 4 2 2 2
3 3 3 3 4 5 5 4 4 4 4 4 4 5 4 4 5 5 5 4 3 4 4 2 1 2 2 2 2 3 3 4 9 12 10 10 5 3
3 4 4 4 4 4 5 4 5 4 5 5 5 4 4 4 4 4 4 3 3 2 3 1 2 2 2 3 4 2 2 3 2 1 3 16 18 18
Wind_Direction
243 249 238 227 275 278 190 156 148 140 234 247 225 242 187 188 174 186 175 124 108 89 84 77 75 65 60 61 62 60 65 68 59 60 62 43 21 6
238 222 220 238 283 308 82 135 123 143 162 200 239 247 165 161 180 175 154 128 118 97 85 77 78 75 67 67 69 67 70 71 71 70 67 68 68 67
227 221 261 229 253 277 83 121 152 150 144 298 260 235 181 200 176 142 136 128 112 102 92 89 87 86 83 78 82 83 80 79 77 75 75 75 70 67
238 238 244 232 64 185 146 119 99 169 140 189 272 233 211 145 143 130 130 123 104 85 83 83 77 78 80 78 75 76 72 71 73 71 70 70 69 67
220 226 240 220 224 192 187 159 152 154 110 146 209 295 68 120 121 97 104 100 97 98 92 88 85 80 77 78 81 85 86 84 78 76 76 75 74 73
225 219 234 213 217 204 194 181 172 159 156 143 156 167 121 81 107 132 123 113 138 112 93 96 90 83 81 82 82 85 93 96 93 87 81 79 78 75
238 228 228 213 219 206 185 186 170 163 157 160 159 141 186 163 165 168 137 141 108 132 128 138 97 72 71 71 82 81 85 87 91 91 89 89 86 84
233 227 176 159 164 213 181 238 191 168 183 168 181 180 194 157 140 139 134 140 171 187 133 124 134 79 86 101 104 104 102 103 103 104 102 97 94 96
221 205 195 183 155 138 121 110 77 64 136 161 172 183 164 199 159 146 164 170 166 155 138 157 169 135 141 137 108 103 109 118 120 120 118 112 110 112
218 203 193 174 176 156 142 126 96 68 45 78 118 149 124 163 178 179 141 106 75 128 142 136 145 124 165 196 199 150 131 141 145 139 130 122 123 117
221 209 192 179 174 164 149 139 129 100 73 95 103 99 85 149 151 118 129 121 102 150 194 115 159 107 158 199 218 203 193 196 204 188 159 131 134 128
197 195 217 184 167 167 158 157 154 177 153 122 91 77 82 77 172 255 152 140 129 134 210 115 145 152 97 210 180 194 206 224 225 235 241 259 244 245
192 192 204 176 167 169 161 170 179 157 163 137 126 118 105 100 90 104 184 154 141 141 200 128 171 163 130 137 169 189 192 209 207 229 236 244 246 237
208 182 181 187 178 165 170 169 156 153 152 151 146 151 142 111 80 70 74 85 80 94 124 171 142 155 142 127 154 116 203 215 197 243 249 249 249 249
241 192 169 179 182 171 177 163 157 154 154 153 154 148 158 142 125 86 73 80 77 70 60 74 111 129 125 121 139 142 152 215 213 243 262 241 224 224
134 140 169 160 196 154 147 149 151 153 155 148 147 135 119 120 112 111 104 82 76 34 50 59 98 100 90 73 97 82 75 127 195 260 284 313 316 242
120 112 118 124 135 138 123 106 98 98 94 94 121 119 123 122 126 153 118 91 105 94 37 21 65 79 79 128 93 147 139 97 246 213 125 327 319 13
80 105 97 100 93 80 57 99 101 109 109 121 127 129 131 126 130 109 117 128 125 121 123 49 59 49 31 28 96 142 97 155 229 5 27 74 332 330
96 90 83 91 102 113 111 96 101 129 136 148 145 147 133 124 119 110 102 112 107 156 184 119 79 100 95 151 289 207 153 215 189 278 209 193 201 269
75 118 120 113 102 99 102 144 160 176 131 118 118 137 139 134 128 136 149 136 142 167 117 61 96 143 144 183 195 267 220 181 187 209 235 256 258 323
102 88 114 128 142 141 163 171 160 138 127 126 135 148 146 127 127 140 150 146 131 135 175 200 215 163 135 107 19 310 286 239 212 183 184 165 224 302
153 169 195 184 178 179 174 157 126 127 134 127 137 149 152 146 147 151 159 157 165 178 198 231 117 121 104 141 231 247 283 304 250 231 207 197 169 214
211 225 201 192 179 170 150 151 154 158 160 151 155 157 158 154 166 175 166 182 156 189 169 220 160 142 167 184 190 241 251 274 297 232 269 244 242 249